Hourly Data Report for July 09, 2021

LYNN LAKE
MANITOBA
Current Station Operator: NAVCAN

56°51'50.000" N
101°04'34.000" W
356.60 m
5061645
71078
YYL

Download Data

Hourly Data (July 2021)
Hourly Data Report for July 9, 2021
TIME
LST
Temp Definition
°C
Dew Point Definition
°C
Rel Hum Definition
%
Precip. Amount Definition
mm

Wind Dir Definition
10's deg

Wind Spd Definition
km/h
Visibility Definition
km
Stn Press Definition
kPa
Hmdx Definition


Wind Chill Definition


Weather Definition


00:00 19.4 11.8 61 0.0 23 11 16.1 96.74     LegendNANA
01:00 19.5 12.0 61 0.0 23 11 16.1 96.74     LegendNANA
02:00 21.2 12.5 57 0.0 26 13 16.1 96.75     LegendNANA
03:00 19.7 13.5 67 0.0 24 11 16.1 96.72     LegendNANA
04:00 20.1 14.1 68 0.0 26 13 16.1 96.73     LegendNANA
05:00 20.7 14.3 66 0.0 24 13 16.1 96.70     LegendNANA
06:00 21.3 14.2 63 0.0 26 21 16.1 96.69 25   LegendNANA
07:00 22.9 14.3 58 0.0 26 22 16.1 96.70 26   LegendNANA
08:00 23.6 15.0 58 0.0 26 21 16.1 96.69 28   LegendNANA
09:00 25.5 15.3 53 0.0 27 18 16.1 96.70 30   LegendNANA
10:00 26.2 15.1 50 0.0 27 13 16.1 96.71 30   LegendNANA
11:00 27.5 14.7 45 0.0 29 15 16.1 96.73 31   LegendNANA
12:00 28.9 14.0 40 0.0 31 24 16.1 96.75 32   LegendNANA
13:00 29.4 14.5 40 0.0 28 21 16.1 96.80 33   LegendNANA
14:00 30.5 11.5 31 0.0 32 22 16.1 96.83 33   LegendNANA
15:00 29.7 9.4 28 0.0 35 28 16.1 96.87 31   LegendNANA
16:00 30.2 8.7 26 0.0 36 26 16.1 96.90 31   LegendNANA
17:00 30.3 9.2 26 0.0 31 21 16.1 96.92 31   LegendNANA
18:00 29.5 6.5 23 0.0 31 21 16.1 96.95 29   LegendNANA
19:00 28.8 8.7 28 0.0 35 15 16.1 96.96 30   LegendNANA
20:00 27.1 10.9 36 0.0 33 15 16.1 97.01 29   LegendNANA
21:00 24.2 12.4 47 0.0 31 9 16.1 97.05 27   LegendNANA
22:00 22.8 11.4 48 0.0 32 13 16.1 97.11 25   LegendNANA
23:00 21.1 11.1 52 0.0 32 13 16.1 97.14     LegendNANA

Notes on Data Quality.

Legend

  • E = Estimated
  • M = Missing
  • NA = Not Available*
  • [empty] = Indicates an unobserved value
Date modified: